TimeAWST,TemperatureF,Dew PointF,Humidity,Sea Level PressureIn,VisibilityMPH,Wind Direction,Wind SpeedMPH,Gust SpeedMPH,PrecipitationIn,Events,Conditions,WindDirDegrees,DateUTC
12:00 AM,78,31,10,29.87,,WNW,9.2,,,,,290,2012-10-05 16:00:00
12:00 AM,78.8,30.2,17,29.92,-9999.0,WNW,9.2,-,N/A,,Unknown,290,2012-10-05 16:00:00
1:00 AM,82.4,41.0,23,29.89,-9999.0,West,13.8,-,N/A,,Unknown,270,2012-10-05 17:00:00
2:00 AM,82,40,13,29.83,,West,13.8,,,,,270,2012-10-05 18:00:00
2:00 AM,82.4,41.0,23,29.89,-9999.0,West,13.8,-,N/A,,Unknown,270,2012-10-05 18:00:00
3:00 AM,82,40,13,29.83,,WSW,13.8,,,,,250,2012-10-05 19:00:00
3:00 AM,82.4,41.0,23,29.89,-9999.0,WSW,13.8,-,N/A,,Unknown,250,2012-10-05 19:00:00
4:00 AM,80.6,39.2,23,29.89,-9999.0,WSW,12.7,-,N/A,,Unknown,240,2012-10-05 20:00:00
5:00 AM,79,37,13,29.86,,SW,15.0,,,,,230,2012-10-05 21:00:00
5:00 AM,78.8,37.4,23,29.89,-9999.0,SW,15.0,-,N/A,,Unknown,230,2012-10-05 21:00:00
6:00 AM,80,36,12,29.87,,SW,11.5,,,,,230,2012-10-05 22:00:00
6:00 AM,80.6,35.6,20,29.92,-9999.0,SW,11.5,-,N/A,,Unknown,230,2012-10-05 22:00:00
7:00 AM,82.4,37.4,20,29.95,-9999.0,SW,8.1,-,N/A,,Unknown,220,2012-10-05 23:00:00
8:00 AM,87,44,13,29.90,,SSE,13.8,,,,,150,2012-10-06 00:00:00
8:00 AM,87.8,44.6,22,29.95,-9999.0,SSE,13.8,-,N/A,,Unknown,150,2012-10-06 00:00:00
9:00 AM,91,44,11,29.91,,SSE,10.4,,,,,160,2012-10-06 01:00:00
9:00 AM,91.4,44.6,20,29.95,-9999.0,SSE,10.4,-,N/A,,Unknown,160,2012-10-06 01:00:00
11:00 AM,100.4,39.2,12,29.92,-9999.0,SSE,10.4,-,N/A,,Unknown,160,2012-10-06 03:00:00
12:00 PM,101,37,5,29.84,,SE,10.4,,,,,130,2012-10-06 04:00:00
12:00 PM,100.4,37.4,11,29.89,-9999.0,SE,10.4,-,N/A,,Unknown,130,2012-10-06 04:00:00
1:00 PM,102.2,33.8,9,29.86,-9999.0,SSE,8.1,-,N/A,,Unknown,150,2012-10-06 05:00:00
2:00 PM,103,31,4,29.79,,East,13.8,,,,,80,2012-10-06 06:00:00
2:00 PM,104.0,30.2,8,29.83,-9999.0,East,13.8,-,N/A,,Unknown,80,2012-10-06 06:00:00
3:00 PM,102,30,4,29.78,,SE,8.1,,,,,140,2012-10-06 07:00:00
3:00 PM,102.2,30.2,8,29.83,-9999.0,SE,8.1,-,N/A,,Unknown,140,2012-10-06 07:00:00
4:00 PM,100.4,32.0,9,29.83,-9999.0,North,3.5,-,N/A,,Unknown,350,2012-10-06 08:00:00
5:00 PM,99,30,4,29.79,,Calm,Calm,,,,,,2012-10-06 09:00:00
5:00 PM,98.6,30.2,9,29.83,-9999.0,Calm,Calm,-,N/A,,Unknown,0,2012-10-06 09:00:00
6:00 PM,94,32,5,29.81,,NNW,4.6,,,,,340,2012-10-06 10:00:00
6:00 PM,95.0,32.0,11,29.86,-9999.0,NNW,4.6,-,N/A,,Unknown,340,2012-10-06 10:00:00
7:00 PM,91.4,33.8,13,29.86,-9999.0,WNW,4.6,-,N/A,,Unknown,300,2012-10-06 11:00:00
8:00 PM,91,33,6,29.84,,West,5.8,,,,,260,2012-10-06 12:00:00
9:00 PM,89,34,7,29.85,,WSW,6.9,,,,,250,2012-10-06 13:00:00
9:00 PM,89.6,33.8,14,29.89,-9999.0,WSW,6.9,-,N/A,,Unknown,250,2012-10-06 13:00:00
10:00 PM,82.4,37.4,20,29.89,-9999.0,SSW,2.3,-,N/A,,Unknown,210,2012-10-06 14:00:00
11:00 PM,86,35,8,29.84,,WSW,8.1,,,,,250,2012-10-06 15:00:00
11:00 PM,86.0,35.6,17,29.89,-9999.0,WSW,8.1,-,N/A,,Unknown,250,2012-10-06 15:00:00